TimeCDT,TemperatureF,Dew PointF,Humidity,Sea Level PressureIn,VisibilityMPH,Wind Direction,Wind SpeedMPH,Gust SpeedMPH,PrecipitationIn,Events,Conditions,WindDirDegrees,DateUTC
12:52 AM,46.4,44.6,93,29.72,9.0,WNW,8.1,-,N/A,,Overcast,300,2012-10-20 05:52:00
1:52 AM,44.1,43.0,96,29.75,10.0,West,5.8,-,N/A,,Overcast,280,2012-10-20 06:52:00
2:52 AM,43.0,42.1,97,29.76,8.0,West,6.9,-,N/A,,Mostly Cloudy,270,2012-10-20 07:52:00
3:52 AM,43.0,42.1,97,29.76,8.0,West,4.6,-,N/A,,Overcast,280,2012-10-20 08:52:00
4:52 AM,43.0,41.0,93,29.77,8.0,NW,4.6,-,N/A,,Overcast,310,2012-10-20 09:52:00
5:52 AM,42.1,41.0,96,29.79,8.0,West,6.9,-,N/A,,Overcast,280,2012-10-20 10:52:00
6:52 AM,42.1,39.9,92,29.81,6.0,West,6.9,-,N/A,,Overcast,260,2012-10-20 11:52:00
7:21 AM,42.8,41.0,93,29.82,2.0,West,4.6,-,N/A,,Overcast,280,2012-10-20 12:21:00
7:52 AM,42.1,41.0,96,29.84,2.0,West,8.1,-,N/A,,Overcast,280,2012-10-20 12:52:00
8:27 AM,42.8,41.0,93,29.84,2.0,NW,8.1,-,N/A,,Overcast,310,2012-10-20 13:27:00
8:52 AM,42.1,41.0,96,29.86,2.0,West,6.9,-,N/A,,Overcast,260,2012-10-20 13:52:00
9:52 AM,44.1,42.1,93,29.88,2.0,West,5.8,-,N/A,,Overcast,280,2012-10-20 14:52:00
10:52 AM,46.0,43.0,89,29.88,2.0,WSW,6.9,-,N/A,,Overcast,250,2012-10-20 15:52:00
11:04 AM,44.6,42.8,93,29.87,3.0,WSW,4.6,-,N/A,,Overcast,250,2012-10-20 16:04:00
11:52 AM,48.0,43.0,83,29.88,5.0,Calm,Calm,-,N/A,,Haze,0,2012-10-20 16:52:00
12:05 PM,48.2,44.6,87,29.87,7.0,Calm,Calm,-,N/A,,Mostly Cloudy,0,2012-10-20 17:05:00
12:43 PM,51.8,42.8,71,29.87,10.0,West,6.9,-,N/A,,Mostly Cloudy,260,2012-10-20 17:43:00
12:52 PM,51.8,42.8,71,29.87,9.0,West,8.1,-,N/A,,Scattered Clouds,260,2012-10-20 17:52:00
1:01 PM,51.8,42.8,71,29.86,10.0,WSW,5.8,-,N/A,,Mostly Cloudy,250,2012-10-20 18:01:00
1:52 PM,53.1,43.0,69,29.86,10.0,WSW,5.8,-,N/A,,Scattered Clouds,240,2012-10-20 18:52:00
2:43 PM,55.4,42.8,63,29.84,10.0,West,4.6,-,N/A,,Mostly Cloudy,270,2012-10-20 19:43:00
2:52 PM,54.0,43.0,66,29.85,10.0,SSW,6.9,-,N/A,,Mostly Cloudy,210,2012-10-20 19:52:00
3:05 PM,55.4,42.8,63,29.85,10.0,West,5.8,-,N/A,,Mostly Cloudy,280,2012-10-20 20:05:00
3:52 PM,55.4,41.0,58,29.84,10.0,WSW,8.1,-,N/A,,Scattered Clouds,240,2012-10-20 20:52:00
4:52 PM,55.0,41.0,59,29.86,10.0,West,3.5,-,N/A,,Scattered Clouds,280,2012-10-20 21:52:00
5:52 PM,51.1,41.0,68,29.86,10.0,South,4.6,-,N/A,,Clear,180,2012-10-20 22:52:00
6:52 PM,46.0,42.1,86,29.87,10.0,Calm,Calm,-,N/A,,Clear,0,2012-10-20 23:52:00
7:52 PM,41.0,39.0,93,29.89,10.0,East,4.6,-,N/A,,Clear,80,2012-10-21 00:52:00
8:52 PM,42.1,39.0,89,29.90,10.0,Calm,Calm,-,N/A,,Clear,0,2012-10-21 01:52:00
9:52 PM,39.9,37.9,93,29.91,10.0,Calm,Calm,-,N/A,,Clear,0,2012-10-21 02:52:00
10:52 PM,42.8,39.2,87,29.90,10.0,Calm,Calm,-,N/A,,Clear,0,2012-10-21 03:52:00
11:52 PM,43.0,37.9,82,29.94,10.0,Calm,Calm,-,N/A,,Clear,0,2012-10-21 04:52:00